Torna al catalogo

COSMOS 2491 DEB

AttivoPO
NORAD 57567·DEBRIS·🇷🇺 Russia

Lanciato Dec 25, 2013 da Plesetsk Cosmodrome

Loading…

Prossimi Passaggi (prossime 24 ore)

TLE

AggiornatoSource: Space-Track

Epoca: Sep 12, 2026, 05:54 UTC

1 57567U 13076BE  26255.24627560  .00001719  00000-0  98107-2 0  9994
2 57567  82.4700  86.2117 0070517  11.8664 348.4066 12.59585257153294

Traccia COSMOS 2491 DEB in tempo reale con AllMySat

Download on the App Store